Theta_e
339 343 348 353 352 352 351 351 351 351 351 352 351 351 351 351 352 352 353 351 349 350 349 347 345 344 344 345 343 343 344 345 346 347 345 345 344 343 343 342 341 339 343
342 344 346 351 352 352 352 353 351 350 350 351 352 351 351 350 351 351 350 350 350 349 348 345 344 346 344 343 342 341 342 342 343 345 344 343 343 341 339 337 338 335 337
343 346 347 348 351 352 352 352 351 350 350 350 351 350 351 350 349 350 350 349 349 349 347 344 345 343 341 340 341 340 340 339 340 341 342 337 335 339 337 335 332 332 333
343 345 346 345 349 351 350 351 351 350 349 349 348 350 351 350 350 349 349 349 348 347 346 347 345 340 336 337 340 339 339 339 340 340 336 335 334 337 335 332 330 330 329
341 344 343 344 348 349 349 348 348 350 348 348 348 349 349 350 350 349 349 348 347 346 347 345 340 335 334 338 337 337 337 337 337 335 331 331 330 332 331 329 328 328 328
342 343 340 344 348 348 348 348 348 349 348 348 347 348 348 348 349 349 347 347 345 344 342 340 336 332 334 334 333 332 332 334 335 330 329 329 325 329 329 328 327 327 327
340 342 343 342 344 346 348 348 347 347 348 347 346 347 348 348 347 346 345 343 341 340 338 334 331 330 330 329 329 328 327 327 325 326 322 321 322 328 328 327 326 327 326
340 342 343 336 340 343 345 346 344 346 345 346 346 346 346 346 345 344 342 339 337 336 333 331 329 327 326 324 323 322 323 323 316 316 319 320 327 326 327 327 327 325 327
341 342 340 341 338 332 337 338 338 341 343 342 344 343 342 341 341 339 338 336 334 332 330 328 326 324 323 321 319 319 320 321 310 316 320 319 327 326 328 326 328 327 325
334 336 338 338 339 339 339 331 332 333 334 337 338 335 333 333 333 333 331 333 331 328 326 324 323 321 319 317 315 315 315 317 309 316 318 319 327 328 326 329 328 325 322
319 326 336 337 337 334 332 328 329 330 331 330 331 328 328 330 328 328 326 329 327 325 323 321 319 316 314 314 313 313 314 308 314 317 317 325 327 323 327 328 326 322 323
309 312 328 334 333 331 331 329 328 328 326 324 324 324 331 327 324 320 318 321 322 321 319 316 315 315 312 303 303 310 306 310 316 316 320 326 325 327 326 326 323 323 323
307 310 312 332 334 329 327 326 326 327 326 325 324 323 323 323 320 316 313 311 310 311 307 307 307 305 305 304 304 305 307 311 314 311 318 324 326 325 327 325 323 324 322
303 305 308 311 324 327 326 323 324 325 323 322 322 322 320 322 320 315 313 309 307 307 305 305 305 304 304 306 307 308 309 309 312 311 314 318 324 325 326 324 324 323 322
300 303 305 308 313 329 326 324 324 323 324 321 321 320 319 315 315 312 309 308 306 306 305 304 304 304 304 306 307 308 308 308 309 310 311 314 318 324 326 325 324 323 322
300 301 304 308 310 322 327 326 324 324 324 322 321 317 315 312 310 309 308 309 307 306 304 304 304 304 304 305 305 306 306 305 306 307 308 310 313 316 320 322 321 321 321
299 301 303 308 311 318 328 328 325 324 324 322 320 317 313 311 310 309 308 307 306 306 305 303 304 304 304 304 303 303 303 302 302 303 306 305 308 310 312 315 315 316 318
297 300 304 310 312 323 326 327 327 324 322 322 319 316 314 312 309 307 306 305 306 306 305 304 303 303 302 300 299 299 299 300 299 299 298 298 298 301 304 309 308 312 314
298 300 303 309 313 323 325 322 322 321 320 320 318 314 312 311 309 307 306 305 306 305 304 302 302 303 300 299 299 298 298 297 297 298 296 297 297 297 296 302 303 304 308
298 300 302 307 308 313 319 318 317 316 316 316 314 312 310 308 307 305 304 303 304 302 302 302 302 303 300 298 300 298 297 297 297 295 295 296 296 296 296 296 295 298 303
296 297 299 301 303 308 317 315 314 313 312 311 311 310 308 307 306 305 303 302 301 300 300 300 301 301 299 300 299 298 296 296 295 295 295 294 294 295 295 295 294 294 296
293 296 298 298 300 302 306 312 314 313 311 310 308 307 306 306 305 304 301 300 299 298 298 299 300 299 300 301 299 298 293 293 294 295 294 294 293 294 294 294 294 294 293
290 294 296 297 298 299 302 309 310 309 308 307 306 306 306 306 305 304 302 302 300 299 298 298 300 299 298 300 300 299 295 292 291 293 292 292 293 292 292 293 293 294 293
288 291 294 296 297 298 299 302 305 304 304 304 305 305 305 305 304 304 303 301 299 299 298 297 299 298 300 297 299 300 298 296 292 288 291 291 292 292 291 292 292 293 293
287 287 289 292 295 296 297 298 300 301 303 303 303 302 301 301 302 301 300 299 298 298 298 298 297 298 299 299 298 296 295 294 294 292 287 287 290 291 291 291 291 291 292
286 286 287 288 289 292 294 295 297 298 299 300 302 301 301 301 300 300 299 299 298 297 296 296 296 297 297 297 297 296 295 293 292 291 289 287 287 288 292 291 291 290 290
Wind_Speed
2 7 10 8 10 7 4 4 4 3 4 8 8 7 7 7 8 8 10 10 9 13 14 13 12 12 12 11 11 11 9 8 9 11 13 14 17 17 18 19 13 13 17
4 8 8 6 7 8 5 3 4 4 3 5 9 9 8 8 8 8 9 10 11 13 14 13 12 12 11 10 10 10 8 5 7 8 13 16 17 17 16 16 15 13 16
10 8 6 6 7 7 6 5 4 5 4 3 7 10 10 9 8 9 9 9 10 14 14 12 13 10 10 10 9 8 7 2 6 3 9 8 9 16 13 14 14 14 16
7 7 6 6 6 6 5 5 4 4 4 5 7 9 9 9 8 8 9 8 10 11 15 14 14 10 10 10 9 8 6 2 8 9 7 9 11 15 13 13 15 15 15
4 5 7 5 5 6 4 6 6 5 5 5 6 7 8 8 9 8 8 8 10 11 14 17 13 10 9 10 10 8 5 7 6 10 9 9 7 10 12 14 13 14 14
6 6 6 5 4 5 4 5 6 6 6 6 6 7 8 9 10 10 10 11 15 17 15 14 13 11 11 10 9 8 8 9 2 9 9 12 8 10 12 13 13 13 14
6 3 5 6 6 6 6 6 7 6 6 7 7 8 9 12 13 15 16 16 15 15 16 15 13 12 12 11 10 9 10 12 8 9 10 8 6 11 12 12 12 14 14
4 4 2 5 4 3 9 5 10 7 8 7 9 10 12 15 16 16 16 15 16 16 15 15 14 13 13 11 10 10 10 10 8 8 9 6 8 11 11 13 12 14 16
6 6 6 2 3 6 3 7 8 8 7 7 10 13 13 14 15 15 15 16 16 16 15 15 14 13 13 12 11 9 9 10 7 7 10 4 8 11 13 11 13 16 15
8 7 6 5 4 5 9 13 10 16 13 7 10 10 11 13 15 14 11 15 16 16 16 15 14 14 13 11 9 8 9 8 6 9 5 4 9 14 10 13 14 15 13
12 13 7 6 7 9 7 11 15 14 18 19 9 7 10 8 10 9 12 14 15 16 16 15 14 14 13 10 7 7 6 4 7 6 4 7 12 11 12 14 14 13 14
11 12 12 6 5 5 5 5 9 9 8 8 11 13 4 6 8 11 12 14 14 14 14 13 11 10 5 4 3 7 4 6 7 7 5 11 11 12 12 14 15 13 14
8 9 12 9 4 3 4 1 2 5 4 2 4 9 13 2 8 6 5 4 4 7 4 5 4 4 7 5 5 4 4 5 6 5 11 17 10 12 12 14 13 12 14
8 9 11 10 8 3 2 2 2 5 4 3 5 7 8 7 6 4 3 4 3 3 5 5 4 5 7 6 6 6 6 5 5 5 10 18 15 9 13 14 12 13 13
9 8 9 9 9 2 1 2 2 1 2 4 4 8 6 4 5 3 4 4 3 3 4 5 5 5 5 6 6 6 6 6 7 5 5 18 21 17 15 15 14 13 13
10 9 9 9 8 7 3 4 3 2 3 3 3 3 10 9 5 6 5 4 4 3 3 4 5 5 4 5 7 6 6 6 7 7 5 8 18 20 20 17 16 16 14
9 9 10 9 9 8 3 4 4 3 4 4 3 5 8 10 10 5 5 7 5 4 5 4 5 5 5 5 7 6 6 6 6 7 4 4 6 18 18 18 16 15 14
9 10 9 8 8 8 2 3 3 5 4 5 6 5 7 9 11 10 7 5 4 4 3 1 3 4 4 5 5 5 5 5 6 7 7 5 5 6 10 15 14 14 15
9 11 10 8 9 10 4 2 3 2 1 2 3 6 8 7 8 8 6 7 4 3 1 1 3 4 4 5 5 5 4 4 5 5 6 5 6 4 3 10 12 11 13
8 11 12 11 12 12 3 4 3 4 3 3 3 5 9 7 7 8 7 6 5 2 0 2 3 3 4 4 7 5 4 4 4 4 5 4 5 5 4 4 4 4 10
9 9 11 12 12 9 3 2 2 2 2 3 3 6 8 8 7 9 6 6 4 2 4 3 1 6 2 4 5 3 3 5 4 3 4 3 5 5 5 5 4 3 4
9 10 12 13 12 9 7 3 3 3 3 3 3 5 5 7 7 6 7 5 6 5 5 3 2 3 1 4 2 3 3 1 2 3 3 3 4 3 4 5 5 5 5
9 11 11 10 12 10 10 5 3 3 3 2 2 3 3 6 6 6 6 6 5 4 4 2 2 3 3 3 1 1 2 2 3 1 2 2 2 2 3 4 5 5 6
8 8 11 11 11 11 12 8 9 5 3 3 2 3 3 4 6 4 5 4 4 4 4 3 3 3 2 3 1 1 2 2 2 2 0 1 2 3 3 2 4 5 5
7 7 7 9 12 12 11 10 7 7 5 4 4 4 5 4 4 4 4 4 4 3 3 5 2 2 2 1 2 1 1 1 1 2 3 1 1 0 2 3 3 4 5
7 7 7 8 9 11 12 12 11 10 8 6 5 4 3 3 3 3 3 3 3 3 3 3 3 3 3 3 1 2 2 3 2 2 2 2 3 1 1 1 3 4 4
Wind_Direction
142 130 127 143 147 135 145 146 128 119 153 173 175 164 156 147 138 139 136 133 129 126 119 111 108 104 91 83 78 74 74 76 77 77 78 69 64 59 50 44 50 50 51
100 128 129 151 146 136 156 164 152 150 145 170 180 168 163 149 140 142 140 135 137 129 123 119 115 100 95 88 80 74 77 94 85 95 88 71 65 57 50 44 40 43 40
95 105 154 172 163 153 160 183 180 166 159 149 158 166 157 152 149 146 141 143 146 137 127 124 113 102 93 88 84 80 79 76 80 81 76 87 71 59 51 46 41 45 44
117 137 146 151 168 155 179 187 192 183 175 155 163 158 149 147 147 144 143 145 149 143 131 122 103 97 96 93 84 78 71 7 43 72 68 61 61 51 40 49 50 48 53
324 154 103 129 159 168 193 213 194 190 193 176 169 161 154 151 141 137 135 138 144 136 121 106 107 104 96 90 82 73 51 19 24 97 73 60 59 48 49 53 54 57 57
334 84 114 144 205 170 178 224 223 198 191 186 179 169 162 147 127 121 118 116 112 108 105 113 115 109 98 91 84 66 32 358 79 93 72 60 48 57 61 62 60 63 62
351 333 147 183 216 194 162 213 229 214 201 187 185 164 148 130 121 115 116 113 113 112 114 112 108 102 93 85 76 58 31 5 60 83 72 66 50 59 64 65 69 66 57
347 347 349 199 231 227 219 197 226 214 211 192 167 153 147 130 123 124 116 116 115 116 112 109 105 100 92 83 70 51 31 11 61 75 80 65 66 66 69 68 66 67 65
25 342 334 271 238 260 253 226 241 228 215 192 165 148 138 126 120 120 119 120 116 112 108 105 100 95 89 80 70 51 30 23 64 56 71 54 64 73 62 64 75 74 69
358 351 352 343 330 355 16 23 41 25 347 186 154 138 125 113 108 107 110 113 113 109 106 102 97 89 82 77 64 35 11 6 70 77 64 20 68 75 68 72 77 74 68
358 335 351 359 64 86 77 63 45 31 43 16 2 143 131 132 122 110 101 105 109 109 107 103 101 100 91 74 57 17 19 49 66 62 43 60 76 70 80 77 77 71 72
356 340 352 30 50 86 86 65 76 54 58 54 52 359 289 116 99 85 78 83 92 97 104 109 115 131 110 97 39 31 40 62 66 54 22 69 72 81 78 80 73 70 70
334 350 341 357 83 32 45 47 77 118 119 20 31 48 9 56 102 101 97 88 105 113 110 103 87 59 61 71 59 53 37 75 79 61 36 38 69 87 101 83 77 75 66
359 340 339 341 329 34 89 96 113 113 118 99 78 83 52 326 80 95 90 104 89 86 92 79 74 82 73 71 70 54 46 60 95 77 46 42 39 74 92 89 80 70 70
355 338 340 329 329 231 175 119 130 149 131 129 117 117 99 19 42 47 87 73 72 80 99 105 97 85 81 83 70 63 49 49 83 86 67 53 45 48 73 79 74 68 64
340 334 331 335 313 308 194 173 195 157 120 109 71 95 121 113 47 35 29 60 41 64 89 115 113 104 93 81 73 65 58 46 53 77 77 65 59 52 46 54 55 49 47
333 327 336 329 325 302 243 211 188 181 141 109 105 131 117 117 111 75 44 29 14 43 47 68 86 88 85 87 85 71 60 58 50 53 64 72 75 58 52 45 48 37 33
331 334 324 332 316 315 265 224 131 160 158 141 141 121 125 139 142 136 134 92 33 357 19 354 117 111 108 101 92 82 75 71 69 57 51 41 42 50 50 59 47 32 29
355 332 333 326 9 339 66 35 72 66 69 107 133 136 131 128 131 118 131 121 107 51 252 200 69 104 102 95 87 80 85 81 85 88 87 69 54 67 73 73 69 48 29
8 354 351 356 7 344 41 52 50 62 52 83 101 111 114 116 132 122 119 126 135 163 164 65 109 97 121 126 104 86 78 71 83 96 95 88 85 64 59 64 89 60 50
9 6 8 358 1 354 333 81 68 65 54 42 79 106 124 129 126 120 138 147 130 109 157 191 147 101 94 120 119 86 88 88 84 89 92 96 86 77 63 57 47 41 42
8 4 18 8 358 3 351 4 21 67 47 65 78 97 110 121 135 142 131 131 138 142 151 185 161 113 115 207 158 148 143 64 59 87 83 86 88 95 80 71 56 48 55
17 8 16 19 3 6 7 360 52 87 83 43 53 87 108 124 129 134 136 144 139 122 139 133 131 123 154 251 175 108 116 149 136 186 111 104 93 87 85 87 77 67 76
14 5 17 21 22 12 14 19 43 51 46 19 31 60 73 110 109 122 123 128 135 136 147 151 214 238 185 175 68 108 77 114 149 157 29 143 80 87 81 73 96 68 93
17 17 9 17 24 23 23 26 31 45 55 39 47 55 62 54 78 98 124 132 140 142 168 170 219 282 293 126 140 140 157 82 51 120 156 205 40 44 60 81 99 100 72
21 14 23 23 18 20 25 23 31 33 46 45 45 62 54 77 90 103 107 125 140 143 176 127 120 63 359 12 13 173 169 157 191 164 126 152 153 202 196 111 87 96 101